Terminal Aerodrome Forecast
Issued by NWS Sterling, VA

Current Version | Previous Version | Graphics & Text | Print | Product List | Glossary On
Versions: 1 2 3 4 5 6 7 8 9 10 11 12 13 14 15 16 17 18 19 20 21 22 23 24 25
000
FTUS41 KLWX 151100 RRA
TAFMRB
TAF
KMRB 151143Z 1512/1612 30007KT P6SM OVC025
     FM151600 VRB05KT P6SM BKN050
     FM160000 13004KT P6SM SCT060
     FM161100 16005KT P6SM -SHRA BKN030=

USA.gov is the U.S. government's official web portal to all federal, state and local government web resources and services.